EA8URG-10 Weather Reports


time (UTC)temp
C
wind
direction
speed
KPH
gust
KPH
rain 1hr
cm
rain 24hr
cm
rain mn
cm
humidity
%
barometer
mb
20260502233915 18 68 0.0 1.6 0.00 0.00 0.00 72 1013.8
20260502232915 18 70 0.0 3.2 0.00 0.00 0.00 72 1013.8
20260502231724 18 202 0.0 0.0 0.00 0.00 0.00 72 1013.8
20260502230724 18 299 0.0 0.0 0.00 0.00 0.00 72 1013.8
20260502225459 18 128 0.0 1.6 0.00 0.00 0.00 72 1013.8
20260502224501 18 248 0.0 0.0 0.00 0.00 0.00 71 1013.8
20260502223459 18 248 0.0 0.0 0.00 0.00 0.00 71 1013.8
20260502222459 18 264 0.0 0.0 0.00 0.00 0.00 70 1013.8
20260502221459 18 248 0.0 0.0 0.00 0.00 0.00 70 1013.8
20260502220308 19 248 0.0 0.0 0.00 0.00 0.00 68 1013.8
20260502215308 19 248 0.0 1.6 0.00 0.00 0.00 68 1013.8
20260502214308 19 0 0.0 0.0 0.00 0.00 0.00 67 1013.8
20260502213308 19 0 0.0 0.0 0.00 0.00 0.00 66 1013.8
20260502212308 19 3 1.6 4.8 0.00 0.00 0.00 66 1013.8
20260502211117 19 6 1.6 4.8 0.00 0.00 0.00 66 1013.8
20260502210117 19 22 1.6 4.8 0.00 0.00 0.00 66 1013.8
20260502205117 20 158 0.0 1.6 0.00 0.00 0.00 65 1013.8
20260502204117 20 165 0.0 0.0 0.00 0.00 0.00 65 1013.8
20260502202748 20 112 0.0 0.0 0.00 0.00 0.00 65 1013.8
20260502201757 20 163 0.0 4.8 0.00 0.00 0.00 66 1013.8
20260502200748 20 129 1.6 4.8 0.00 0.00 0.00 66 1013.8
20260502195748 20 87 0.0 4.8 0.00 0.00 0.00 67 1013.8
20260502194748 20 107 0.0 3.2 0.00 0.00 0.00 66 1013.8
20260502193556 20 125 0.0 3.2 0.00 0.00 0.00 66 1013.8
20260502192557 20 5 0.0 4.8 0.00 0.00 0.00 66 1013.8
20260502191557 20 168 1.6 4.8 0.00 0.00 0.00 65 1013.8
20260502190405 20 160 0.0 3.2 0.00 0.00 0.00 65 1013.8
20260502185405 20 68 0.0 3.2 0.00 0.00 0.00 66 1013.8
20260502184406 20 112 1.6 6.4 0.00 0.00 0.00 66 1013.8
20260502183214 20 79 1.6 4.8 0.00 0.00 0.00 66 1013.8
20260502182213 20 96 1.6 4.8 0.00 0.00 0.00 65 1013.8
20260502181214 20 90 1.6 6.4 0.00 0.00 0.00 64 1013.8
20260502180214 20 98 1.6 8.0 0.00 0.00 0.00 63 1013.8
20260502110953 21 35 4.8 14.5 0.00 0.00 0.00 58 1014.8
20260502105953 21 42 4.8 8.0 0.00 0.00 0.00 58 1014.8
20260502104801 21 31 8.0 14.5 0.00 0.00 0.00 58 1014.8
20260502103802 21 37 4.8 12.9 0.00 0.00 0.00 57 1014.8
20260502102610 20 62 3.2 9.7 0.00 0.00 0.00 60 1014.8
20260502101610 20 78 4.8 17.7 0.00 0.00 0.00 60 1014.8
20260502100610 20 58 8.0 14.5 0.00 0.00 0.00 60 1014.8
20260502091419 22 35 6.4 16.1 0.00 0.00 0.00 53 1014.8
20260502090419 22 115 3.2 8.0 0.00 0.00 0.00 51 1014.8
20260502070711 20 282 1.6 6.4 0.00 0.00 0.00 66 1013.8
20260502065711 18 208 3.2 9.7 0.00 0.00 0.00 71 1013.8
20260502064711 17 202 6.4 9.7 0.00 0.00 0.00 76 1013.8
20260502063711 17 211 4.8 9.7 0.00 0.00 0.00 76 1013.8
20260502062520 17 235 0.0 3.2 0.00 0.00 0.00 77 1012.8
20260502061520 17 250 0.0 3.2 0.00 0.00 0.00 77 1012.8
20260502060520 17 160 0.0 3.2 0.00 0.00 0.00 76 1012.8
20260502055520 17 0 0.0 0.0 0.00 0.00 0.00 75 1012.8
20260502054520 17 245 0.0 1.6 0.00 0.00 0.00 76 1012.8
20260502053520 17 338 0.0 0.0 0.00 0.00 0.00 76 1012.8
20260502052520 17 340 0.0 0.0 0.00 0.00 0.00 75 1012.8
20260502051520 17 338 0.0 0.0 0.00 0.00 0.00 75 1012.8
20260502050520 17 270 0.0 0.0 0.00 0.00 0.00 75 1012.8
20260502045329 17 330 0.0 3.2 0.00 0.00 0.00 74 1013.8
20260502044137 17 328 0.0 1.6 0.00 0.00 0.00 74 1012.8
20260502043137 17 320 0.0 0.0 0.00 0.00 0.00 75 1012.8
20260502042137 17 53 0.0 0.0 0.00 0.00 0.00 75 1012.8
20260502041137 17 340 0.0 1.6 0.00 0.00 0.00 75 1013.8
20260502040137 17 342 0.0 0.0 0.00 0.00 0.00 75 1013.8
20260502035137 17 292 0.0 0.0 0.00 0.00 0.00 75 1013.8
20260502033946 17 298 0.0 1.6 0.00 0.00 0.00 75 1013.8
20260502032946 17 248 0.0 0.0 0.00 0.00 0.00 75 1013.8
20260502031946 17 302 0.0 1.6 0.00 0.00 0.00 75 1013.8
20260502030946 17 302 0.0 3.2 0.00 0.00 0.00 75 1013.8
20260502025946 17 310 0.0 0.0 0.00 0.00 0.00 75 1013.8
20260502024946 17 228 0.0 1.6 0.00 0.00 0.00 74 1013.8
20260502023946 18 338 0.0 1.6 0.00 0.00 0.00 74 1013.8
20260502022755 18 315 0.0 0.0 0.00 0.00 0.00 74 1013.8
20260502021755 18 338 0.0 1.6 0.00 0.00 0.00 73 1013.8
20260502020604 18 348 0.0 1.6 0.00 0.00 0.00 73 1013.8
20260502015603 18 0 0.0 0.0 0.00 0.00 0.00 73 1014.8
20260502014604 18 14 0.0 1.6 0.00 0.00 0.00 72 1014.8
20260502013603 18 329 0.0 3.2 0.00 0.00 0.00 72 1014.8
20260502012603 18 270 0.0 0.0 0.00 0.00 0.00 72 1014.8
20260502011604 18 315 0.0 1.6 0.00 0.00 0.00 71 1014.8
20260502010603 18 335 0.0 1.6 0.00 0.00 0.00 70 1014.8
20260502005603 19 225 0.0 1.6 0.00 0.00 0.00 69 1014.8
20260502004412 19 270 0.0 0.0 0.00 0.00 0.00 69 1014.8
20260502003412 19 225 0.0 3.2 0.00 0.00 0.00 70 1014.8
20260502002412 19 280 0.0 1.6 0.00 0.00 0.00 70 1014.8
20260502001412 19 202 0.0 3.2 0.00 0.00 0.00 69 1014.8
20260502000412 19 180 0.0 3.2 0.00 0.00 0.00 69 1015.9
20260501235412 19 218 0.0 3.2 0.00 0.00 0.00 69 1015.9
20260501234412 19 22 0.0 3.2 0.00 0.00 0.00 69 1015.9